Location: Skalnate Pleso
(49.1889°N, 20.2450°E)
Time: 19:51:51
(UTC+02:00)

Cosmos 1605 Rocket - Pass Details

Date: 25 February 2020
Orbit: 944 x 1007 km, 82.9° (Epoch: 04 April)

Event Time Altitude Azimuth Distance (km) Brightness Sun altitude
Rises 03:10:25 0° 350° (N) 3,682 7.2 -32.8°
Reaches altitude 10° 03:12:57 10° 351° (N) 2,721 6.5 -32.4°
Enters shadow 03:17:30 51° 356° (N) 1,193 4.4 -31.7°
